Regional Weather Roundup
Issued by NWS

Home | Current Version | Previous Version | Text Only | Print | Product List | Glossary On
Versions: 1 2 3 4 5 6 7 8 9 10 11 12 13 14 15 16 17 18 19 20 21 22 23 24 25 26 27 28 29 30 31 32 33 34 35 36 37 38 39 40 41 42 43 44 45 46 47 48 49 50
000
ASUS44 KFWD 171015
RWRTX
NORTH TEXAS HOURLY WEATHER ROUNDUP
NATIONAL WEATHER SERVICE FORT WORTH TX
500 AM CDT TUE OCT 17 2017

NOTE: "FAIR" INDICATES FEW OR NO CLOUDS BELOW 12,000 FEET WITH NO
SIGNIFICANT WEATHER AND/OR OBSTRUCTIONS TO VISIBILITY.

TXZ118-119-171100-
DALLAS/FORT WORTH METROPLEX

CITY           SKY/WX    TMP DP  RH WIND       PRES   REMARKS
DFW AIRPORT    CLEAR     53  43  68 CALM      30.25F
DALLAS LOVE    CLEAR     50  45  83 CALM      30.27F
FTW MEACHAM    CLEAR     51  46  83 CALM      30.26F
DAL-EXECUTIVE  CLEAR     49  42  77 CALM      30.27F
FTW-ALLIANCE   CLEAR     43  41  93 CALM      30.26F
FTW-SPINKS     CLEAR     40  38  92 CALM      30.29S
ARLINGTON      CLEAR     42  42 100 CALM      30.27F
GRAND PRAIRIE  CLEAR     52  42  70 CALM      30.29S
ADDISON        CLEAR     55  41  59 CALM      30.29S
MESQUITE       CLEAR     44  40  86 CALM      30.28F
LANCASTER      CLEAR     43  40  90 CALM      30.28F
$$

TXZ091>094-102>105-117-120-121-131>134-171100-
NORTH CENTRAL TEXAS

CITY           SKY/WX    TMP DP  RH WIND       PRES   REMARKS
SHRMAN/DENISON PTCLDY    45  40  85 E3        30.29R
GAINESVILLE    CLEAR     43  39  88 CALM      30.30R
BOWIE          CLEAR     42  40  93 CALM      30.26F
BRIDGEPORT     CLEAR     40  40 100 CALM      30.29S
DECATUR        CLEAR     55  38  53 SE5       30.26S
DENTON         CLEAR     42  40  92 NW5       30.27S WCI  39
MCKINNEY       CLEAR     43  42  97 CALM      30.28S
BONHAM         CLEAR     42  41  94 E3        30.29S
GREENVILLE     CLEAR     45  43  93 CALM      30.29S
ROCKWALL       CLEAR     51  41  68 E7        30.28F
TERRELL        CLEAR     43  39  86 NE5       30.29S
WAXAHACHIE     CLEAR     45  40  83 CALM      30.28F
CLEBURNE       CLEAR     46  43  87 CALM      30.29R
GRANBURY       CLEAR     42  38  87 CALM      30.29S
$$

TXZ083>090-098>101-113>116-127>130-139>142-154-155-171100-
WESTERN NORTH TEXAS

CITY           SKY/WX    TMP DP  RH WIND       PRES   REMARKS
WICHITA FALLS  CLEAR     46  40  79 S8        30.24F
WF-KICKAPOO    CLEAR     46  42  84 SE7       30.28S
VERNON         CLEAR     46  39  76 SW6       30.25S
ABILENE        CLEAR     42  37  82 S7        30.27F WCI  38
ABILENE-DYESS  CLEAR     42  37  84 SW8       30.27F WCI  37
GRAHAM           N/A     41  32  70 CALM      30.26S
BRECKENRIDGE   CLEAR     44  38  79 CALM      30.26F
CISCO          CLEAR     50  36  57 S6        30.28S
EASTLAND       CLEAR     35  34  94 CALM      30.28S
RANGER         CLEAR     51  38  61 S6        30.27F
MINERAL WELLS  CLEAR     43  39  86 CALM      30.25F
STEPHENVILLE   CLEAR     43  39  85 CALM      30.29F
COMANCHE       CLEAR     48  38  67 CALM      30.28S
BROWNWOOD      CLEAR     37  32  81 CALM      30.28S FOG
COLEMAN        CLOUDY    41  35  79 W7        30.28S WCI  37
$$

TXZ143>147-156>162-174-175-171100-
CENTRAL TEXAS

CITY           SKY/WX    TMP DP  RH WIND       PRES   REMARKS
WACO           CLEAR     43  38  82 CALM      30.27F
WACO-MCGREGOR  CLEAR     42  37  82 CALM      30.28F
HILLSBORO      CLEAR     46  40  77 CALM      30.27F
CORSICANA      CLEAR     47  44  90 N3        30.29R
MEXIA          CLEAR     51  39  63 W5        30.26S
HEARNE         CLEAR     42  41  95 CALM      30.28R
CAMERON        CLEAR     47  40  77 CALM      30.27S
TEMPLE         CLEAR     44  39  82 NW7       30.28S
KILLEEN        CLEAR     48  39  70 CALM      30.26F
KILLEEN-SKYLRK CLEAR     47  40  76 CALM      30.27F
FORT HOOD      CLEAR     50  40  67 NW3       30.24S
GATESVILLE     CLEAR     45  39  81 CALM      30.29S
HAMILTON       CLEAR     48  38  69 CALM      30.28S
LAMPASAS       CLEAR     44  38  82 CALM      30.27R
$$

TXZ095>097-106>112-122>126-135>138-148>153-164>167-171100-
EAST TEXAS

CITY           SKY/WX    TMP DP  RH WIND       PRES   REMARKS
PARIS          CLEAR     45  41  86 E5        30.30S
SULPHUR SPRNGS CLEAR     45  43  93 E3        30.31S
MOUNT PLEASANT CLEAR     40  40  99 N3        30.31S
GILMER         CLEAR     42  41  96 CALM      30.30R
MINEOLA        CLEAR     41  39  93 CALM      30.29S
TYLER          CLEAR     46  40  79 NE3       30.27S
LONGVIEW       CLEAR     45  43  93 CALM      30.28R
MARSHALL       CLEAR     41  38  91 CALM      30.31R
ATHENS         CLEAR     43  41  93 CALM      30.27S
PALESTINE      CLEAR     54  42  64 NE6       30.28S
JACKSONVILLE   CLEAR     50  41  72 E3        30.29R
HENDERSON      CLEAR     40  39  95 CALM      30.29S
CENTER         SUNNY     46  44  92 NW3       30.28S
NACOGDOCHES    CLEAR     43  40  89 N3        30.27S
LUFKIN         CLEAR     43  42  97 CALM      30.26S
$$

SUPPLEMENTAL OBSERVATIONS (NWS FORT WORTH AREA)

CITY           SKY/WX    TMP DP  RH WIND       PRES   REMARKS
DENISON DAM      N/A     46  41  81 CALM        N/A
CADDO GRASSLND   N/A     43  37  81 CALM        N/A
PAT MAYSE LAKE   N/A     45  43  93 NW1         N/A
CEDAR HILL       N/A     48  39  71 SE1         N/A
LBJ GRASSLAND    N/A     48  39  71 E3          N/A
POSSUM KINGDOM   N/A     50  41  71 SE2         N/A
GRANBURY         N/A     43  39  87 CALM        N/A
COMANCHE         N/A     48  36  61 S2          N/A
MCGREGOR         N/A     43  36  75 CALM        N/A
TEMPLE           N/A     54  37  54 NE3         N/A
LAKE LIMESTONE   N/A     45  41  87 N1          N/A
ATHENS           N/A     46  39  76 E2          N/A
$$

SUPPLEMENTAL OBSERVATIONS (NWS NORMAN AREA)

CITY           SKY/WX    TMP DP  RH WIND       PRES   REMARKS
GOODLETT         N/A     44  35  70 SW5       30.24S
ODELL            N/A     51  40  65 S7        30.26R
CROWELL          N/A     44  35  70 SW7       30.25F
KNOX CITY        N/A     41  34  75 SW5       30.27S WCI  38
SEYMOUR          N/A     46  39  77 S2        30.26S
MILLERS CREEK    N/A     46  39  76 S6          N/A
$$

SUPPLEMENTAL OBSERVATIONS (NWS SAN ANGELO AREA)

CITY           SKY/WX    TMP DP  RH WIND       PRES   REMARKS
WEINERT          N/A     48  38  67 S6        30.27S
HASKELL          N/A     49  37  64 S8        30.26F
THROCKMORTON     N/A     47  40  76 SW3       30.27S
STAMFORD         N/A     43  38  83 SW6       30.28S WCI  39
CLYDE            N/A     49  36  61 S9        30.28F
HAMBY            N/A     43  34  70 S2          N/A
IVIE RESERVOIR   N/A     45  37  76 N2          N/A
COLORADO BEND    N/A     43  34  70 CALM        N/A
$$

SUPPLEMENTAL OBSERVATIONS (NWS SHREVEPORT AREA)

CITY           SKY/WX    TMP DP  RH WIND       PRES   REMARKS
CLARKSVILLE      N/A     45  39  81 NE2         N/A
TEXARKANA        N/A     39  37  93 CALM        N/A
LINDEN           N/A     41  36  81 CALM        N/A
CADDO LAKE       N/A     36  34  93 CALM        N/A
GILMER           N/A     41  37  87 CALM        N/A
HENDERSON        N/A     39  36  87 N2          N/A
LUFKIN           N/A     46  41  81 MISG        N/A
S SABINE NF      N/A     54  45  71 NW2         N/A
$$

SUPPLEMENTAL OBSERVATIONS ARE A COLLECTION OF AUTOMATED INSTRUMENTS
THAT ARE MAINTAINED BY A VARIETY OF FEDERAL AND STATE AGENCIES.
CERTAIN ELEMENTS...SUCH AS HUMIDITY VALUES AND SUSTAINED WIND
SPEEDS...MAY BE APPROXIMATED.





USA.gov is the U.S. government's official web portal to all federal, state and local government web resources and services.